Location: Hurecourt
(47.9030°N, 6.0653°E)
Time: 10:18:14
(UTC+00:00)

Iridium 4 Rocket - Pass Details

Date: 14 July 2020
Orbit: 583 x 906 km, 86.9° (Epoch: 05 August)

Event Time Altitude Azimuth Distance (km) Brightness Sun altitude
Exits shadow 00:24:12 37° 179° (S) 1,304 4.2 -19.8°
Maximum altitude 00:26:33 87° 94° (E) 844 3.6 -19.7°
Drops below altitude 10° 00:31:55 10° 4° (N) 2,359 7.2 -19.6°
Sets 00:34:11 0° 4° (N) 3,243 8.3 -19.5°
